Wind_Speed
4 5 6 9 12 14 15 16 15 16 19 22 26 31 35 41 46 51 54 57 60 64 67 70 72 73 73 72 72 73 75 77 77 77 78 78 79 78 76 75 75 76 76 75
5 7 8 9 11 14 16 17 18 20 24 28 32 36 41 47 52 57 60 63 66 70 74 76 78 80 84 84 84 84 84 84 81 80 81 82 83 84 84 82 80 80 82 82
8 10 12 14 15 16 17 19 22 24 28 30 36 42 48 54 59 63 66 68 70 73 79 83 86 88 90 91 90 87 84 84 84 81 79 80 82 83 85 87 87 86 85 85
10 12 13 14 16 19 19 22 24 27 30 35 41 50 54 59 63 66 69 72 76 81 84 86 89 89 88 87 83 79 76 73 71 69 68 69 71 74 78 81 83 87 87 87
12 13 14 15 17 20 22 24 27 30 34 40 47 55 59 63 66 69 73 76 80 83 85 87 86 83 79 74 69 65 63 59 59 60 62 62 60 58 59 61 65 70 73 75
15 16 18 18 19 21 25 29 32 34 38 42 50 58 62 65 69 73 76 78 79 81 83 81 77 71 63 62 61 58 54 54 55 54 54 51 43 39 36 35 37 43 47 48
17 18 19 20 21 23 27 31 34 37 39 45 54 60 64 68 71 75 77 78 79 80 77 71 65 56 56 54 51 50 50 50 49 47 45 42 39 35 30 26 26 28 31 32
19 19 20 22 24 28 31 34 36 39 43 50 57 62 66 70 73 75 76 76 75 71 65 62 57 56 52 48 51 51 50 48 47 45 44 42 39 35 28 23 21 23 24 25
20 22 23 25 28 32 34 36 39 44 50 56 61 64 69 72 75 75 75 73 67 61 59 59 57 53 46 45 50 53 51 49 48 46 44 42 40 35 30 25 23 23 24 22
24 24 25 27 28 31 35 39 45 50 56 61 64 67 72 74 74 74 73 69 60 56 57 58 56 49 44 46 51 54 54 51 49 46 44 42 39 35 31 27 24 24 23 24
25 25 26 27 28 33 37 42 47 53 59 64 68 69 72 74 74 74 72 64 55 53 55 57 57 54 50 51 54 56 56 53 51 48 46 43 40 37 34 30 27 26 27 28
25 26 27 27 30 34 39 44 50 57 61 63 67 70 73 74 73 75 70 60 54 53 56 58 60 59 56 56 57 57 56 54 52 52 51 48 45 42 39 37 34 33 32 33
26 28 28 29 33 37 44 49 54 58 61 64 68 70 74 74 73 73 67 58 52 52 56 58 61 61 59 58 58 58 56 54 53 53 53 53 51 48 45 43 41 40 40 40
26 28 28 31 35 40 47 53 57 60 64 67 69 71 74 74 75 72 64 55 51 52 57 60 62 62 60 59 59 58 58 57 56 54 52 51 51 51 50 48 46 45 44 44
27 29 30 33 37 43 48 54 59 62 66 69 70 73 76 76 76 71 61 53 51 54 58 62 64 64 61 58 57 56 54 52 52 52 52 51 49 48 48 48 48 48 47 46
28 31 32 35 38 43 49 56 61 66 69 70 71 74 77 77 76 67 57 52 51 57 62 65 66 63 60 56 51 49 48 49 50 52 52 52 51 49 45 43 44 46 47 46
30 32 35 38 40 45 53 59 64 68 69 70 72 74 78 79 72 62 53 51 56 62 66 67 65 61 55 51 51 51 50 51 53 56 56 56 54 51 48 45 41 40 43 43
31 33 36 39 44 50 56 60 65 68 68 70 72 76 79 77 64 56 52 54 59 64 67 65 61 55 52 50 49 50 51 53 56 59 60 57 54 52 49 44 41 37 36 38
30 33 37 43 47 52 59 63 67 69 69 70 73 77 78 72 60 53 53 57 62 65 65 61 57 53 50 49 51 52 54 55 56 58 60 57 55 54 50 44 38 34 31 30
31 34 39 45 50 56 61 65 67 69 69 71 74 77 76 67 57 54 57 61 64 64 60 55 51 49 48 50 52 54 54 55 56 59 61 60 56 55 50 44 38 32 28 26
35 39 42 46 51 56 63 67 69 69 69 71 74 76 72 61 55 57 61 63 64 60 55 51 49 48 49 51 55 56 57 57 59 62 61 59 56 52 49 45 41 35 30 26
37 41 43 47 52 58 64 68 68 67 68 70 73 74 67 58 55 58 62 63 61 56 51 48 47 48 50 53 56 58 59 60 63 65 62 58 55 51 47 44 42 39 33 28
38 41 42 47 52 59 64 67 67 66 67 69 72 73 63 56 56 60 62 62 59 53 48 46 46 49 52 55 57 59 61 62 65 64 62 59 55 51 48 45 42 39 35 31
39 41 43 48 54 61 66 68 66 64 65 69 73 69 60 55 57 61 62 61 55 49 45 44 47 50 53 55 57 61 62 63 64 61 61 60 57 53 50 48 45 40 35 31
39 42 45 49 55 62 66 67 66 64 65 69 71 65 59 56 58 61 61 59 51 45 43 45 49 53 54 55 58 61 62 64 62 60 60 61 60 57 52 48 45 41 36 32
39 42 46 49 55 62 65 66 64 63 65 69 70 63 58 57 60 61 60 56 47 42 44 48 51 54 55 56 59 60 62 63 60 60 60 61 62 60 55 50 44 41 38 33
Wind_Direction
45 15 351 345 343 339 336 332 332 331 331 333 333 334 333 327 322 318 314 311 309 308 306 305 305 304 302 300 297 293 289 284 279 275 271 269 267 267 267 267 265 263 263 264
345 326 317 320 327 328 329 327 327 330 332 332 329 327 325 322 318 316 315 313 311 308 306 306 306 305 304 302 299 294 289 285 280 275 270 266 261 258 258 259 261 263 264 263
318 314 317 326 333 339 341 335 331 329 329 330 326 323 322 321 320 318 316 312 309 308 307 309 309 307 303 300 298 297 297 297 297 295 289 281 272 263 259 259 259 258 257 258
313 309 313 321 333 338 337 332 327 324 324 324 324 321 321 322 319 317 315 314 314 314 314 314 310 306 304 303 304 306 308 310 310 308 305 301 293 281 271 265 262 261 261 260
318 316 317 325 331 332 330 328 325 321 320 320 321 322 323 321 319 317 317 317 317 318 318 315 312 310 310 312 315 316 315 316 316 314 311 307 301 293 283 274 268 264 264 264
316 319 324 327 328 330 331 328 324 320 317 320 322 322 322 321 320 319 319 319 321 323 320 318 316 315 318 320 322 322 319 317 319 319 317 317 314 305 291 273 266 265 265 264
318 320 321 323 326 327 327 325 321 321 323 324 322 322 323 324 322 321 321 323 326 325 323 322 320 320 323 325 325 326 325 326 327 328 329 328 326 321 305 283 268 262 259 257
317 318 319 320 321 321 323 324 326 328 325 322 323 325 326 324 324 324 324 327 328 326 326 325 324 321 323 326 330 332 331 332 333 333 333 331 328 324 317 302 286 272 263 259
310 313 317 319 321 323 325 326 327 329 326 325 326 327 326 325 325 326 328 329 328 328 329 330 326 321 320 325 330 333 334 334 335 334 333 332 331 327 322 309 296 285 276 269
314 315 317 321 323 325 326 329 332 332 329 327 326 327 327 326 329 330 330 329 328 330 333 333 329 322 315 318 324 328 330 330 329 329 328 327 328 327 324 313 296 286 281 276
318 323 324 327 331 331 331 333 334 331 328 328 326 328 327 328 331 331 330 329 329 332 334 333 331 327 321 318 321 322 322 322 321 320 320 318 316 315 314 311 302 291 284 280
325 327 328 330 331 332 334 334 334 332 330 328 326 328 328 331 331 331 330 328 328 332 333 333 333 330 326 322 321 320 320 319 317 315 313 311 308 305 302 298 295 291 288 285
328 329 329 331 334 337 338 336 335 333 330 328 329 331 331 333 332 330 329 326 327 331 334 333 332 331 329 326 323 322 321 319 317 315 312 309 305 300 296 292 289 286 286 286
330 329 329 333 336 337 337 336 335 334 331 330 331 331 332 333 332 331 328 326 329 333 333 333 332 331 330 328 327 326 324 322 321 320 317 313 307 301 295 289 285 283 282 283
329 329 328 331 334 335 335 334 336 336 333 332 333 333 333 333 333 333 331 330 332 333 332 332 332 331 330 329 329 329 330 330 331 331 330 327 321 311 302 293 286 281 278 278
325 327 327 331 332 335 335 336 337 337 334 333 334 334 334 334 335 336 335 334 333 333 333 333 332 332 332 333 336 337 336 336 336 336 335 332 329 324 316 302 288 280 276 273
325 326 327 331 333 336 337 338 338 337 334 335 335 335 336 337 339 340 339 339 338 336 335 334 334 335 337 339 339 339 341 342 344 344 342 339 334 328 322 317 305 286 273 268
324 326 328 331 334 338 338 339 338 337 336 336 336 337 339 340 343 342 341 341 338 336 335 336 338 340 341 342 344 345 344 343 343 344 342 340 339 337 333 324 316 307 289 269
323 326 328 332 335 336 338 339 337 336 337 337 337 339 341 343 345 344 342 340 338 337 338 340 342 344 346 348 347 345 343 342 343 344 343 340 339 338 337 334 326 315 304 288
323 326 328 331 334 336 337 337 337 337 338 339 339 341 343 345 347 346 344 342 339 339 342 343 346 348 350 350 350 349 347 345 345 344 343 341 339 339 338 336 335 327 316 300
324 326 330 331 334 336 336 337 337 337 339 339 340 343 345 347 347 345 344 342 341 342 344 346 348 351 352 353 352 351 350 348 346 344 343 342 341 340 340 339 338 334 325 313
325 326 330 331 334 336 336 336 336 337 338 340 341 345 347 348 346 345 344 342 342 344 346 348 350 351 351 352 352 352 350 349 347 346 345 343 341 340 339 338 337 335 329 320
322 324 328 330 332 334 335 335 335 336 339 340 342 346 349 348 346 345 344 343 344 346 348 350 351 351 350 350 352 352 351 351 349 349 350 350 348 344 340 337 336 333 329 325
320 323 326 329 331 333 334 334 334 337 339 339 342 347 348 347 346 344 344 344 345 348 350 352 353 354 352 352 352 352 353 353 352 354 354 355 353 349 343 338 335 331 328 324
319 322 325 329 330 332 333 334 334 337 338 338 343 347 347 346 345 345 344 345 347 350 353 355 355 355 354 353 352 353 354 354 356 356 355 356 354 351 347 342 337 332 328 323
317 320 324 328 330 332 333 333 334 336 337 339 345 346 346 345 345 345 345 346 349 352 354 356 356 355 355 354 353 354 355 356 357 358 357 354 353 352 349 345 341 335 330 325
Height
5854 5854 5851 5851 5851 5850 5847 5844 5841 5838 5834 5831 5826 5821 5817 5812 5806 5799 5791 5782 5773 5764 5754 5744 5735 5725 5713 5703 5694 5685 5678 5668 5660 5655 5650 5647 5645 5643 5641 5639 5637 5636 5637 5637
5856 5853 5851 5851 5850 5847 5846 5843 5839 5836 5832 5828 5823 5819 5814 5808 5801 5792 5781 5771 5762 5752 5741 5729 5717 5706 5694 5682 5670 5659 5648 5639 5630 5624 5619 5615 5613 5612 5612 5612 5612 5611 5612 5613
5855 5853 5851 5849 5847 5844 5842 5839 5836 5833 5830 5825 5819 5813 5808 5802 5791 5780 5769 5758 5746 5735 5724 5712 5700 5687 5672 5657 5644 5630 5617 5607 5599 5592 5587 5586 5583 5582 5584 5585 5586 5586 5587 5588
5854 5852 5850 5847 5844 5841 5839 5836 5832 5828 5824 5820 5814 5806 5801 5793 5781 5770 5758 5745 5733 5720 5705 5691 5676 5661 5646 5631 5619 5607 5596 5585 5575 5567 5559 5553 5548 5548 5550 5554 5559 5560 5560 5563
5853 5851 5849 5846 5843 5840 5837 5834 5830 5824 5819 5814 5807 5799 5794 5783 5770 5757 5744 5730 5716 5701 5687 5670 5652 5637 5623 5612 5601 5592 5583 5574 5563 5552 5541 5533 5524 5518 5516 5520 5527 5533 5537 5540
5851 5849 5847 5844 5841 5838 5835 5832 5826 5820 5814 5808 5800 5792 5783 5771 5757 5743 5729 5714 5699 5684 5667 5651 5635 5621 5611 5601 5591 5581 5572 5564 5554 5542 5530 5519 5509 5503 5500 5500 5504 5510 5515 5518
5849 5847 5844 5842 5839 5836 5833 5829 5822 5815 5808 5802 5793 5782 5772 5758 5744 5730 5716 5701 5685 5667 5652 5638 5625 5613 5604 5595 5585 5574 5563 5553 5543 5533 5523 5513 5504 5496 5492 5491 5492 5495 5498 5501
5847 5846 5843 5839 5836 5832 5828 5823 5816 5809 5802 5795 5785 5774 5762 5748 5733 5718 5704 5688 5670 5654 5641 5628 5615 5605 5597 5588 5576 5565 5554 5544 5534 5525 5516 5508 5499 5493 5488 5485 5484 5485 5487 5489
5845 5843 5840 5837 5833 5829 5822 5816 5809 5804 5795 5787 5777 5766 5751 5737 5722 5706 5691 5674 5658 5644 5632 5618 5606 5596 5588 5580 5569 5558 5548 5537 5527 5518 5510 5503 5496 5489 5484 5480 5478 5478 5478 5479
5842 5840 5837 5833 5829 5824 5818 5811 5804 5794 5785 5776 5766 5755 5740 5725 5711 5694 5678 5663 5649 5636 5623 5610 5598 5588 5580 5572 5561 5550 5540 5531 5522 5513 5505 5498 5492 5486 5481 5476 5473 5472 5471 5471
5840 5837 5834 5830 5824 5819 5814 5806 5797 5788 5777 5764 5751 5746 5729 5713 5698 5682 5667 5652 5639 5627 5615 5603 5592 5581 5572 5562 5552 5542 5532 5523 5514 5506 5498 5491 5486 5480 5475 5471 5467 5465 5463 5462
5837 5834 5830 5827 5821 5816 5809 5801 5792 5782 5769 5757 5742 5734 5716 5701 5686 5670 5654 5640 5629 5619 5608 5596 5585 5573 5562 5552 5542 5532 5522 5512 5503 5495 5488 5481 5476 5471 5466 5462 5458 5455 5453 5451
5834 5831 5827 5822 5819 5812 5804 5795 5786 5775 5763 5750 5734 5724 5706 5691 5674 5656 5642 5632 5623 5612 5601 5590 5578 5565 5553 5541 5530 5520 5510 5500 5491 5482 5474 5467 5461 5456 5453 5449 5446 5443 5440 5438
5830 5826 5823 5819 5813 5807 5800 5791 5780 5768 5754 5741 5728 5715 5700 5685 5667 5650 5634 5624 5614 5604 5593 5581 5569 5556 5543 5531 5520 5509 5499 5488 5478 5469 5460 5452 5445 5439 5434 5431 5428 5426 5424 5423
5826 5823 5819 5814 5809 5803 5795 5785 5774 5761 5746 5733 5719 5705 5690 5674 5656 5640 5628 5617 5607 5597 5585 5573 5560 5546 5533 5521 5510 5498 5488 5477 5467 5457 5447 5438 5429 5422 5417 5413 5409 5406 5405 5405
5823 5819 5816 5812 5806 5799 5790 5778 5766 5754 5739 5725 5710 5696 5679 5663 5646 5632 5621 5612 5602 5591 5578 5564 5550 5536 5523 5511 5500 5491 5481 5471 5461 5450 5439 5428 5417 5407 5400 5394 5390 5388 5386 5386
5819 5815 5810 5805 5799 5792 5782 5771 5759 5747 5731 5717 5702 5687 5670 5654 5637 5625 5615 5605 5593 5582 5568 5554 5540 5526 5514 5503 5493 5483 5474 5463 5453 5441 5430 5418 5406 5394 5385 5378 5373 5369 5367 5367
5815 5809 5805 5799 5793 5784 5778 5765 5752 5739 5723 5707 5692 5676 5660 5644 5630 5617 5607 5597 5586 5573 5559 5545 5532 5519 5508 5498 5487 5477 5467 5456 5445 5434 5422 5410 5398 5386 5375 5365 5358 5353 5350 5350
5810 5805 5799 5793 5785 5778 5768 5755 5743 5731 5717 5701 5686 5671 5656 5640 5627 5614 5603 5591 5578 5565 5551 5538 5526 5515 5504 5494 5483 5473 5462 5451 5439 5427 5414 5402 5390 5378 5367 5357 5348 5341 5337 5335
5807 5802 5796 5787 5778 5770 5761 5749 5736 5722 5708 5693 5679 5665 5651 5634 5622 5611 5598 5585 5571 5556 5544 5532 5521 5511 5501 5491 5480 5469 5457 5446 5433 5421 5407 5393 5380 5369 5358 5348 5341 5333 5328 5324
5802 5796 5790 5781 5771 5763 5752 5741 5728 5714 5701 5685 5670 5657 5641 5626 5614 5602 5591 5577 5563 5551 5539 5528 5518 5508 5499 5489 5477 5465 5453 5441 5427 5413 5399 5386 5373 5361 5351 5341 5333 5326 5321 5316
5796 5790 5784 5774 5765 5758 5746 5733 5721 5708 5692 5678 5665 5650 5634 5621 5609 5598 5586 5573 5559 5547 5536 5526 5516 5506 5497 5486 5474 5462 5449 5436 5422 5407 5392 5379 5366 5354 5345 5336 5327 5320 5313 5308
5791 5786 5780 5772 5764 5753 5740 5728 5714 5701 5688 5674 5660 5644 5630 5618 5607 5595 5583 5570 5557 5545 5535 5524 5515 5505 5494 5483 5471 5459 5446 5431 5417 5401 5387 5373 5360 5348 5338 5330 5322 5314 5306 5300
5785 5779 5774 5766 5756 5747 5734 5721 5708 5695 5683 5669 5654 5639 5626 5615 5603 5591 5579 5566 5554 5544 5534 5524 5514 5504 5493 5480 5468 5455 5441 5427 5412 5398 5383 5369 5356 5343 5331 5320 5312 5305 5298 5291
5779 5774 5767 5760 5751 5741 5728 5715 5703 5690 5677 5663 5648 5635 5622 5611 5599 5588 5576 5563 5552 5542 5533 5523 5513 5502 5490 5478 5466 5452 5438 5424 5409 5395 5380 5366 5352 5338 5326 5314 5303 5295 5288 5281
5775 5770 5762 5754 5745 5735 5723 5710 5697 5685 5672 5658 5644 5630 5619 5608 5597 5585 5573 5561 5550 5540 5532 5521 5511 5500 5488 5476 5463 5449 5435 5421 5407 5393 5378 5364 5349 5334 5320 5308 5297 5285 5277 5271